Vorticity
1 -0 5 1 2 3 5 5 12 9 8 1 -1 16 -1 8 18 8 7 9 11 8 9 7 7 5 8 5 6 7 10 5 9 9 6 6 7 6 5 3 2 2 2 3
3 -0 5 4 3 4 2 7 11 4 8 7 -2 13 2 26 15 5 0 13 9 9 8 5 7 6 6 4 8 6 5 8 9 5 7 7 5 4 2 2 2 3 5 6
2 6 4 3 1 3 4 8 9 13 4 3 -1 6 14 17 10 2 12 3 12 10 6 6 5 4 5 7 6 8 5 9 11 6 7 6 4 2 1 3 6 7 8 8
2 3 4 4 5 5 3 9 4 8 5 6 6 7 11 11 -1 5 9 9 12 8 8 6 4 5 7 6 5 4 7 12 8 7 5 6 5 3 4 6 9 11 7 7
2 4 3 2 5 5 6 5 12 12 2 11 -10 20 4 6 7 2 -0 20 9 9 5 6 5 6 4 1 6 9 9 9 8 9 10 7 6 7 8 2 11 8 6 7
14 5 6 9 4 5 10 7 11 8 7 1 20 20 14 14 2 15 13 6 8 6 5 7 6 9 2 6 10 12 8 8 8 10 9 7 8 5 9 16 11 9 6 7
20 18 21 10 8 8 4 12 8 5 1 2 19 16 21 9 4 -1 0 -6 7 4 6 7 7 3 5 6 13 11 7 9 7 8 8 7 11 16 8 6 6 7 7 6
10 8 13 18 13 11 14 8 6 5 16 26 13 2 -0 1 11 -2 22 12 9 6 6 7 8 6 4 13 12 9 10 9 7 7 9 12 11 6 5 7 3 4 5 4
16 10 11 12 14 8 20 11 23 31 23 14 8 13 8 0 2 -4 9 7 6 6 5 8 6 8 7 10 10 10 10 7 6 9 10 5 8 5 5 5 4 3 3 5
17 14 16 17 9 7 -4 25 13 9 13 5 3 -2 4 18 6 0 9 8 6 5 7 8 9 7 11 10 10 11 12 9 8 5 4 5 5 5 4 6 5 4 5 6
20 16 13 8 8 10 28 -7 19 9 15 11 -1 5 -1 -5 -19 34 -2 9 -1 6 7 11 8 9 10 11 12 8 8 8 6 5 4 4 4 5 5 5 6 5 6 6
17 14 16 19 12 10 12 17 12 8 11 8 7 8 -0 5 34 4 29 -9 8 6 9 9 9 9 9 12 10 7 4 5 5 4 4 4 3 3 4 4 6 6 6 7
7 4 12 16 12 14 13 21 25 11 9 11 -5 13 24 11 10 -17 -1 10 9 6 10 12 8 8 10 8 8 5 4 5 5 5 5 4 4 4 5 6 6 6 7 8
5 11 13 4 13 25 4 12 10 14 1 9 6 15 -2 21 11 8 14 2 14 15 11 4 7 9 11 7 7 6 4 4 5 6 5 6 6 7 7 7 6 6 7 7
1 3 9 23 6 0 28 34 6 1 13 9 11 -0 16 3 -4 8 2 3 -8 9 9 15 6 8 10 7 7 6 4 5 7 8 7 7 6 7 7 6 6 7 8 8
26 4 8 18 24 10 19 18 10 -2 -1 3 11 -9 3 9 15 12 4 0 12 6 10 7 9 8 8 5 5 9 5 7 7 7 7 6 6 5 5 4 5 7 8 8
5 1 8 11 14 14 8 6 -0 -1 11 18 -13 -5 7 7 2 9 12 11 12 13 9 7 8 7 7 6 4 7 7 8 6 8 6 6 5 5 4 4 5 7 7 9
32 21 18 25 17 -1 22 12 7 18 11 -14 0 16 8 9 18 10 13 13 11 7 8 8 5 5 6 5 4 8 8 5 8 7 7 5 5 3 4 5 6 7 9 8
9 8 10 15 10 6 7 11 15 16 17 15 12 10 15 14 11 10 11 12 7 7 5 5 6 6 6 6 7 5 6 9 7 7 3 3 2 4 7 7 7 7 8 9
-4 2 5 7 12 10 8 9 5 6 14 13 17 12 9 7 6 7 6 4 5 6 7 8 7 7 6 8 5 8 8 7 8 3 4 2 5 9 8 6 6 9 10 9
9 12 6 14 9 7 10 9 12 5 10 9 10 10 7 6 3 1 4 3 7 8 8 7 6 5 7 9 9 12 9 6 5 5 2 5 8 7 6 7 9 11 10 6
6 5 3 -4 -7 11 20 14 14 14 16 13 10 10 7 6 8 7 7 8 8 8 9 7 7 7 9 11 9 9 7 3 3 5 5 6 6 7 10 9 14 12 7 2
-7 13 12 18 12 10 3 7 5 4 6 3 6 6 6 7 6 7 9 9 6 6 6 6 6 8 9 9 8 6 3 4 3 4 8 8 9 9 10 25 13 6 4 10
-13 19 7 -8 1 -0 11 1 6 6 7 7 10 12 10 10 9 8 9 10 11 12 11 7 7 8 6 4 1 4 2 1 3 6 8 9 10 11 17 7 6 6 8 11
11 30 7 -10 9 13 4 5 7 7 10 7 5 2 1 4 8 7 6 6 6 7 6 7 7 4 3 5 6 5 6 5 7 9 12 9 9 15 8 1 6 12 10 10
2 8 7 29 15 8 8 7 9 7 3 2 1 4 3 4 2 3 4 6 6 7 5 3 5 6 5 5 3 3 9 8 9 16 13 17 8 14 3 13 15 8 9 -0
Height
5882 5882 5888 5886 5883 5883 5888 5885 5884 5880 5878 5876 5877 5872 5874 5875 5874 5871 5869 5866 5865 5863 5862 5861 5860 5858 5856 5854 5853 5850 5847 5846 5844 5842 5840 5839 5838 5838 5835 5833 5831 5828 5826 5824
5875 5874 5879 5878 5877 5877 5879 5880 5882 5877 5877 5875 5875 5869 5869 5871 5869 5868 5866 5863 5862 5860 5858 5858 5856 5856 5853 5851 5850 5848 5846 5843 5842 5840 5839 5837 5835 5833 5831 5830 5828 5826 5822 5819
5863 5870 5867 5868 5869 5869 5872 5872 5874 5874 5870 5869 5870 5862 5863 5865 5864 5863 5862 5860 5859 5857 5855 5854 5853 5852 5850 5849 5847 5844 5843 5839 5838 5838 5838 5835 5833 5831 5828 5826 5823 5820 5817 5814
5852 5857 5860 5858 5858 5860 5863 5865 5863 5866 5862 5862 5864 5859 5853 5857 5857 5858 5857 5856 5855 5854 5852 5850 5849 5848 5846 5845 5844 5841 5841 5837 5834 5834 5832 5832 5830 5826 5825 5823 5820 5816 5812 5808
5842 5846 5847 5846 5850 5851 5853 5856 5855 5855 5856 5855 5857 5851 5844 5845 5851 5853 5852 5851 5850 5850 5848 5847 5846 5845 5844 5842 5840 5838 5835 5833 5830 5828 5827 5826 5826 5823 5820 5817 5813 5808 5805 5802
5829 5834 5835 5839 5839 5839 5847 5845 5846 5847 5845 5844 5850 5846 5837 5839 5846 5847 5846 5847 5847 5846 5844 5843 5843 5842 5839 5838 5835 5832 5830 5828 5826 5825 5823 5821 5819 5815 5812 5810 5809 5806 5801 5797
5821 5822 5829 5829 5827 5829 5835 5837 5835 5838 5836 5838 5838 5833 5833 5833 5837 5842 5841 5843 5843 5841 5840 5840 5839 5838 5835 5832 5830 5828 5825 5823 5820 5819 5816 5815 5813 5811 5808 5805 5802 5799 5795 5790
5808 5812 5817 5823 5821 5822 5824 5826 5827 5829 5829 5830 5831 5826 5821 5827 5830 5836 5837 5838 5839 5838 5839 5837 5834 5833 5830 5827 5825 5823 5821 5819 5816 5814 5811 5809 5807 5805 5802 5799 5795 5791 5788 5783
5799 5800 5809 5809 5812 5813 5819 5814 5821 5819 5822 5819 5822 5824 5817 5823 5824 5824 5829 5832 5832 5832 5831 5831 5829 5827 5825 5822 5819 5818 5817 5814 5811 5810 5807 5805 5802 5799 5796 5793 5790 5785 5780 5775
5791 5790 5797 5800 5800 5801 5807 5812 5812 5812 5813 5813 5815 5815 5815 5818 5820 5819 5820 5822 5823 5823 5822 5823 5823 5821 5820 5816 5814 5812 5812 5811 5807 5804 5802 5799 5797 5794 5791 5786 5782 5778 5773 5768
5780 5783 5789 5789 5791 5795 5801 5803 5802 5806 5808 5809 5810 5808 5809 5813 5815 5814 5816 5817 5817 5818 5818 5817 5817 5815 5814 5812 5809 5806 5806 5804 5802 5799 5797 5794 5791 5788 5785 5780 5775 5770 5764 5758
5776 5775 5778 5784 5784 5791 5793 5796 5797 5798 5802 5802 5804 5805 5805 5808 5811 5811 5811 5811 5811 5813 5812 5811 5809 5808 5807 5806 5803 5801 5799 5798 5796 5793 5791 5788 5784 5780 5776 5772 5766 5761 5756 5749
5769 5771 5774 5779 5780 5785 5785 5788 5789 5792 5796 5797 5799 5803 5799 5803 5802 5806 5806 5805 5805 5805 5804 5803 5803 5801 5800 5801 5799 5797 5794 5792 5789 5787 5784 5781 5777 5773 5769 5764 5759 5753 5747 5741
5765 5764 5769 5771 5778 5776 5781 5782 5785 5785 5788 5792 5794 5795 5797 5797 5797 5796 5795 5798 5799 5799 5798 5796 5797 5795 5793 5792 5791 5790 5788 5785 5783 5781 5777 5774 5769 5765 5761 5755 5750 5743 5738 5731
5758 5758 5763 5766 5771 5770 5775 5777 5777 5779 5783 5785 5790 5787 5789 5790 5792 5791 5792 5792 5792 5790 5790 5789 5789 5788 5786 5785 5785 5784 5782 5779 5777 5773 5770 5766 5761 5757 5751 5746 5740 5733 5727 5721
5749 5754 5753 5761 5764 5766 5769 5770 5773 5776 5777 5779 5781 5783 5785 5782 5786 5787 5787 5790 5786 5783 5782 5780 5782 5781 5780 5779 5778 5777 5775 5772 5769 5766 5762 5757 5752 5747 5741 5735 5729 5723 5716 5710
5744 5747 5749 5754 5757 5758 5757 5765 5766 5768 5769 5774 5774 5780 5779 5775 5778 5779 5780 5779 5778 5778 5778 5776 5776 5776 5774 5773 5771 5769 5767 5764 5761 5757 5753 5748 5742 5737 5731 5725 5718 5711 5705 5699
5735 5738 5741 5745 5748 5749 5760 5757 5760 5762 5764 5766 5769 5771 5771 5773 5775 5772 5773 5773 5771 5772 5772 5772 5769 5768 5768 5766 5765 5762 5759 5756 5752 5748 5743 5738 5732 5726 5720 5713 5706 5699 5693 5687
5728 5732 5734 5737 5740 5744 5749 5753 5755 5755 5759 5760 5761 5762 5765 5766 5765 5766 5766 5765 5764 5764 5764 5763 5763 5761 5759 5757 5756 5753 5750 5746 5742 5736 5732 5728 5722 5715 5709 5701 5694 5688 5682 5675
5721 5724 5727 5731 5733 5737 5744 5746 5748 5750 5752 5752 5754 5754 5758 5758 5757 5758 5758 5758 5758 5757 5756 5755 5754 5752 5751 5748 5745 5743 5739 5735 5730 5726 5721 5716 5710 5703 5696 5688 5681 5675 5669 5663
5714 5718 5721 5726 5727 5731 5736 5740 5742 5742 5749 5744 5747 5748 5748 5749 5750 5751 5751 5751 5750 5748 5747 5745 5743 5742 5740 5737 5735 5732 5729 5725 5719 5714 5709 5703 5697 5689 5681 5675 5668 5662 5657 5651
5707 5711 5714 5717 5720 5727 5727 5734 5735 5736 5736 5739 5739 5741 5741 5741 5743 5742 5741 5741 5739 5739 5736 5733 5732 5731 5730 5728 5724 5721 5718 5712 5708 5702 5696 5689 5682 5674 5667 5661 5655 5650 5644 5640
5698 5703 5710 5713 5719 5720 5720 5724 5726 5728 5730 5730 5731 5732 5733 5734 5735 5734 5733 5732 5730 5727 5727 5726 5724 5721 5720 5717 5714 5710 5705 5701 5695 5690 5682 5674 5666 5659 5653 5647 5642 5638 5632 5626
5691 5695 5699 5704 5709 5711 5714 5716 5717 5720 5722 5723 5724 5725 5725 5725 5725 5725 5723 5721 5720 5719 5717 5714 5712 5711 5710 5708 5703 5697 5689 5684 5679 5673 5667 5659 5652 5645 5640 5636 5630 5624 5620 5613
5685 5688 5693 5697 5701 5703 5708 5708 5707 5709 5713 5715 5714 5716 5717 5716 5715 5714 5713 5712 5709 5707 5704 5702 5699 5696 5693 5690 5687 5682 5676 5668 5661 5656 5650 5644 5637 5631 5628 5622 5617 5611 5607 5601
5674 5680 5683 5689 5690 5692 5695 5697 5700 5702 5703 5705 5707 5706 5705 5705 5704 5703 5701 5699 5696 5694 5691 5688 5684 5678 5673 5669 5667 5663 5658 5651 5645 5638 5630 5626 5621 5618 5613 5608 5602 5598 5594 5588